This demonstration page uses our WeatherBlox Daily Observations layout. Learn more.

Left ArrowRight Arrow

Hourly Observations for July 22, 2016

Temp ( °F °C ) Dew Point ( °F °C ) Humidity (%) Winds ( mph kmh ) Pressure ( in mb ) Visibility ( mi km ) Precip ( " mm )
12:58 am 00:58 Mostly Cloudy 84 29.1 77 25.1 79 79 SSE 8 13 29.88 1012 10 16 0.00 0.00
1:58 am 01:58 Mostly Cloudy 83 28.3 76 24.4 79 79 SE 6 9 29.88 1012 10 16 0.00 0.00
2:58 am 02:58 Partly Cloudy 81 27.2 77 25.1 88 88 ESE 6 9 29.85 1011 10 16 0.00 0.00
3:58 am 03:58 Mostly Cloudy 80 26.8 77 24.9 89 89 E 5 7 29.90 1012 10 16 0.00 0.00
4:58 am 04:58 Clear 79 26.1 76 24.4 90 90 E 6 9 29.88 1012 10 16 0.00 0.00
5:58 am 05:58 Clear 78 25.6 75 23.7 89 89 ESE 5 7 29.88 1012 10 16 0.00 0.00
6:58 am 06:58 Sunny 76 24.5 74 23.5 94 94 E 6 9 29.90 1012 10 16 0.00 0.00
7:58 am 07:58 Sunny 80 26.8 74 23.6 83 83 ESE 6 9 29.91 1013 10 16 0.00 0.00
8:58 am 08:58 Sunny 83 28.1 75 23.8 78 78 SE 7 11 29.92 1013 10 16 0.00 0.00
9:58 am 09:58 Sunny 84 29.1 74 23.6 72 72 SE 9 15 29.92 1013 10 16 0.00 0.00
10:58 am 10:58 Sunny 86 30 75 23.7 69 69 ESE 12 19 29.93 1014 10 16 0.00 0.00
11:58 am 11:58 Sunny 89 31.5 77 24.8 68 68 SE 15 24 29.93 1014 10 16 0.00 0.00
12:58 pm 12:58 Sunny 90 32 77 25.2 67 67 SE 13 20 29.93 1014 10 16 0.00 0.00
1:58 pm 13:58 Mostly Sunny 91 32.9 78 25.8 66 66 SE 17 28 29.93 1013 10 16 0.00 0.00
2:58 pm 14:58 Mostly Sunny 92 33.3 79 26.2 66 66 SE 16 26 29.92 1013 10 16 0.00 0.00
3:58 pm 15:58 Sunny 93 33.8 81 27 68 68 SSE 13 20 29.91 1013 10 16 0.00 0.00
4:58 pm 16:58 Sunny 93 33.7 80 26.8 67 67 SSE 13 20 29.90 1012 10 16 0.00 0.00
5:58 pm 17:58 Sunny 92 33.6 81 27.4 70 70 SSE 10 17 29.88 1012 10 16 0.00 0.00
6:58 pm 18:58 Sunny 92 33.2 82 27.8 73 73 SE 8 13 29.87 1012 10 16 0.00 0.00
7:58 pm 19:58 Sunny 90 32.2 82 28 79 79 E 8 13 29.87 1011 10 16 0.00 0.00
8:58 pm 20:58 Clear 86 30.1 83 28.1 89 89 E 7 11 29.87 1012 10 16 0.00 0.00
9:58 pm 21:58 Clear 84 28.9 81 27.2 91 91 E 8 13 29.87 1012 10 16 0.00 0.00
10:58 pm 22:58 Clear 83 28.6 81 27.2 92 92 SE 9 15 29.89 1012 10 16 0.00 0.00
11:58 pm 23:58 Clear 82 28 80 26.9 94 94 SE 6 9 29.90 1012 10 16 0.00 0.00

Powered by AerisWeather